Precipitable_Water
1.77 1.84 1.83 1.86 1.91 1.97 1.91 1.84 1.79 1.87 1.86 1.85 1.93 2.05 2.04 1.98 2.01 2.08 2.05 2.00 1.93 1.83 1.89 1.98 1.91 1.98 1.97 1.95 1.94 1.98 1.87 1.87 1.72 1.81 1.97 2.07 2.02 1.96 1.96 2.07 2.17 2.15 2.11
1.80 1.82 1.83 1.84 1.90 1.92 1.91 1.90 1.82 1.83 1.92 1.93 1.96 1.99 2.03 2.00 2.01 1.99 1.96 1.96 1.92 1.82 1.85 1.88 1.85 1.87 1.94 1.93 1.98 1.94 1.99 2.01 1.82 1.72 1.93 2.04 2.01 2.04 1.99 2.02 2.08 2.12 2.12
1.83 1.81 1.84 1.87 1.86 1.83 1.91 1.96 1.96 1.91 1.96 1.99 1.97 1.97 2.00 2.00 1.98 1.92 1.86 1.84 1.85 1.79 1.70 1.70 1.71 1.74 1.71 1.75 1.78 1.75 1.75 1.82 1.85 1.80 1.73 1.94 2.04 1.96 1.91 2.00 2.05 2.08 2.13
1.71 1.75 1.74 1.83 1.88 1.92 1.93 2.02 2.00 2.00 1.99 1.99 1.98 1.96 1.92 1.87 1.86 1.80 1.74 1.72 1.70 1.68 1.72 1.76 1.80 1.80 1.76 1.75 1.75 1.74 1.85 1.83 1.70 1.65 1.70 1.76 1.90 1.97 1.89 1.73 1.70 1.93 1.93
1.61 1.62 1.66 1.78 1.88 1.93 1.96 2.03 2.04 2.03 1.98 1.98 1.91 1.85 1.78 1.69 1.60 1.54 1.48 1.46 1.53 1.59 1.63 1.67 1.71 1.72 1.66 1.55 1.57 1.59 1.58 1.60 1.64 1.72 1.70 1.72 1.64 1.76 1.69 1.82 1.68 1.68 1.84
1.58 1.57 1.63 1.62 1.65 1.74 1.84 1.91 1.94 1.93 1.87 1.78 1.66 1.56 1.49 1.47 1.45 1.37 1.42 1.48 1.56 1.60 1.58 1.61 1.67 1.69 1.66 1.60 1.50 1.55 1.65 1.45 1.35 1.35 1.43 1.61 1.75 1.69 1.76 1.86 1.83 1.72 1.49
1.55 1.54 1.57 1.60 1.47 1.54 1.64 1.68 1.71 1.69 1.66 1.55 1.47 1.45 1.42 1.49 1.61 1.63 1.69 1.76 1.77 1.77 1.77 1.78 1.81 1.78 1.68 1.68 1.64 1.56 1.60 1.77 1.72 1.57 1.42 1.38 1.50 1.85 1.87 1.69 1.76 1.71 1.67
1.52 1.50 1.55 1.58 1.41 1.39 1.47 1.44 1.40 1.35 1.32 1.39 1.50 1.57 1.62 1.73 1.80 1.81 1.78 1.75 1.70 1.63 1.60 1.58 1.54 1.54 1.61 1.56 1.51 1.50 1.46 1.48 1.49 1.50 1.58 1.57 1.61 1.64 1.82 1.96 1.94 1.83 1.79
1.42 1.46 1.49 1.52 1.41 1.40 1.36 1.27 1.27 1.37 1.46 1.50 1.58 1.63 1.69 1.76 1.71 1.66 1.60 1.55 1.49 1.47 1.51 1.53 1.48 1.40 1.40 1.36 1.29 1.24 1.24 1.30 1.45 1.48 1.47 1.49 1.55 1.68 1.76 1.73 1.73 1.83 1.72
1.50 1.38 1.49 1.52 1.45 1.28 1.42 1.25 1.37 1.45 1.48 1.60 1.68 1.72 1.75 1.64 1.58 1.51 1.47 1.42 1.27 1.20 1.18 1.01 0.92 0.91 0.95 0.98 0.97 1.01 0.98 1.04 1.16 1.23 1.37 1.49 1.48 1.40 1.52 1.62 1.58 1.44 1.69
1.80 1.57 1.46 1.53 1.52 1.44 1.40 1.40 1.45 1.49 1.53 1.54 1.63 1.69 1.66 1.67 1.52 1.47 1.41 1.32 1.14 0.92 0.77 0.77 0.89 0.94 0.92 0.95 0.98 0.99 0.99 1.10 1.14 1.19 1.22 1.26 1.31 1.39 1.39 1.45 1.45 1.50 1.44
1.95 1.73 1.52 1.46 1.51 1.51 1.47 1.49 1.51 1.51 1.48 1.48 1.53 1.54 1.57 1.56 1.50 1.42 1.34 1.12 0.95 0.80 0.80 0.88 0.89 0.94 0.98 1.02 1.03 1.01 0.96 0.99 1.09 1.00 1.04 1.17 1.27 1.29 1.36 1.46 1.54 1.55 1.59
1.70 1.87 1.85 1.65 1.55 1.50 1.43 1.42 1.45 1.49 1.46 1.46 1.41 1.41 1.46 1.53 1.46 1.29 1.16 0.98 0.88 0.85 0.89 0.90 0.91 0.96 1.04 1.07 1.12 1.17 1.15 1.10 1.05 1.03 1.04 1.15 1.33 1.41 1.49 1.48 1.54 1.62 1.62
1.57 1.67 1.78 1.91 1.82 1.69 1.62 1.53 1.43 1.41 1.42 1.41 1.36 1.33 1.39 1.39 1.37 1.28 1.11 0.99 0.92 0.87 0.87 0.93 1.04 1.10 1.18 1.23 1.30 1.38 1.42 1.38 1.31 1.22 1.21 1.34 1.46 1.45 1.47 1.55 1.53 1.55 1.48
1.55 1.66 1.67 1.66 1.71 1.77 1.74 1.70 1.51 1.58 1.54 1.42 1.39 1.37 1.32 1.31 1.29 1.19 1.03 0.93 0.83 0.76 0.82 0.89 0.87 0.90 1.03 1.19 1.33 1.40 1.44 1.44 1.48 1.43 1.28 1.29 1.40 1.37 1.41 1.54 1.56 1.55 1.39
1.41 1.57 1.59 1.58 1.62 1.63 1.58 1.62 1.79 1.71 1.62 1.53 1.55 1.48 1.41 1.34 1.26 1.13 1.00 0.87 0.75 0.76 0.78 0.74 0.73 0.80 0.90 1.05 1.25 1.34 1.38 1.40 1.42 1.39 1.36 1.36 1.36 1.31 1.29 1.36 1.47 1.48 1.37
1.29 1.36 1.49 1.48 1.41 1.45 1.41 1.40 1.37 1.44 1.45 1.40 1.43 1.43 1.38 1.31 1.24 1.12 0.97 0.76 0.71 0.68 0.69 0.66 0.65 0.74 0.84 0.93 1.15 1.31 1.33 1.38 1.41 1.36 1.32 1.30 1.32 1.33 1.35 1.45 1.49 1.44 1.36
1.27 1.35 1.38 1.40 1.39 1.41 1.39 1.35 1.35 1.28 1.25 1.27 1.37 1.34 1.33 1.27 1.14 1.01 0.85 0.77 0.71 0.74 0.72 0.63 0.60 0.67 0.79 0.86 0.99 1.16 1.28 1.36 1.37 1.36 1.37 1.42 1.43 1.41 1.37 1.38 1.42 1.42 1.43
1.09 1.19 1.28 1.30 1.40 1.40 1.38 1.38 1.34 1.31 1.26 1.25 1.29 1.27 1.27 1.13 1.03 0.92 0.75 0.70 0.68 0.70 0.72 0.69 0.65 0.63 0.68 0.83 0.93 1.01 1.12 1.21 1.31 1.40 1.36 1.34 1.37 1.38 1.34 1.40 1.42 1.38 1.36
1.08 1.10 1.13 1.25 1.32 1.36 1.37 1.37 1.29 1.28 1.30 1.28 1.27 1.25 1.23 1.12 0.98 0.79 0.75 0.75 0.73 0.76 0.78 0.74 0.71 0.70 0.66 0.70 0.81 0.88 0.94 0.99 1.05 1.16 1.27 1.31 1.37 1.39 1.35 1.32 1.32 1.28 1.27
1.09 1.10 1.11 1.16 1.21 1.26 1.28 1.30 1.36 1.38 1.34 1.31 1.28 1.31 1.28 1.08 0.89 0.85 0.79 0.77 0.75 0.79 0.78 0.73 0.74 0.73 0.68 0.68 0.66 0.73 0.75 0.80 0.80 0.80 0.79 0.87 0.96 1.02 1.09 1.11 1.12 1.13 1.12
1.11 1.12 1.12 1.13 1.22 1.24 1.24 1.30 1.34 1.35 1.34 1.35 1.34 1.36 1.30 1.06 0.99 0.90 0.82 0.81 0.82 0.82 0.81 0.77 0.75 0.72 0.71 0.68 0.66 0.66 0.66 0.67 0.69 0.70 0.69 0.70 0.73 0.76 0.81 0.86 0.88 0.89 0.91
1.12 1.14 1.18 1.26 1.29 1.31 1.32 1.40 1.45 1.50 1.42 1.35 1.29 1.30 1.06 0.99 0.97 0.93 0.90 0.87 0.88 0.86 0.85 0.80 0.83 0.86 0.90 0.92 0.91 0.86 0.81 0.80 0.81 0.82 0.81 0.80 0.73 0.65 0.68 0.64 0.64 0.72 0.74
1.14 1.18 1.24 1.34 1.35 1.40 1.40 1.46 1.54 1.50 1.43 1.33 1.21 1.16 1.10 0.98 0.91 0.87 0.87 0.89 0.87 0.91 0.86 0.88 0.93 0.95 1.04 1.12 1.16 1.16 1.12 1.09 1.09 1.08 1.10 1.05 1.01 0.98 0.95 0.93 0.87 0.82 0.78
1.22 1.25 1.27 1.31 1.32 1.41 1.46 1.52 1.50 1.45 1.31 1.28 1.21 1.10 1.00 0.90 0.82 0.80 0.82 0.89 0.94 0.96 0.98 1.03 1.10 1.18 1.24 1.30 1.29 1.28 1.27 1.30 1.30 1.25 1.23 1.24 1.22 1.19 1.15 1.09 1.06 1.06 1.06
1.26 1.30 1.38 1.46 1.44 1.46 1.50 1.48 1.46 1.44 1.25 1.14 1.09 0.99 0.95 0.91 0.92 0.94 1.01 1.07 1.09 1.11 1.13 1.14 1.16 1.19 1.21 1.21 1.20 1.23 1.23 1.23 1.24 1.28 1.33 1.33 1.25 1.22 1.22 1.21 1.20 1.20 1.19
Wind_Speed
14 14 14 15 17 18 18 17 18 17 16 15 14 13 13 12 12 11 10 10 9 9 9 9 11 13 11 11 11 11 11 12 13 13 12 12 12 13 13 14 15 16 16
13 13 14 15 16 17 18 18 18 18 17 16 15 14 13 13 12 12 12 12 11 11 11 11 12 10 12 13 13 14 14 14 15 16 16 16 15 15 15 16 16 15 16
12 14 14 14 15 17 18 18 18 18 17 16 15 14 13 13 12 12 13 13 13 13 14 14 14 14 15 15 15 16 17 17 17 18 18 17 17 17 17 17 17 17 17
13 13 14 14 15 16 17 17 18 17 17 16 15 14 14 14 14 14 14 14 14 15 15 16 16 17 17 18 19 19 19 19 20 19 19 19 19 18 19 19 19 19 18
12 13 14 13 14 15 16 16 17 17 17 16 15 15 15 14 14 15 15 15 15 16 17 18 19 20 21 21 21 22 22 22 22 22 21 20 21 20 20 20 21 20 20
14 14 14 13 13 14 15 16 16 16 16 16 16 15 15 14 14 13 13 14 15 16 17 18 19 20 21 22 23 24 24 24 24 24 24 24 23 23 22 21 21 21 21
15 15 15 14 14 14 14 15 16 16 16 16 14 13 13 12 12 13 14 16 17 18 19 20 21 22 23 23 24 26 26 27 28 27 27 27 27 26 25 24 24 23 23
16 16 16 15 15 15 15 15 15 15 15 14 13 13 13 13 13 14 15 17 19 20 21 22 23 24 25 26 27 28 28 29 29 30 30 30 29 28 28 27 27 26 25
17 18 17 17 16 16 16 16 15 15 14 14 13 13 14 14 14 16 17 18 19 20 22 24 25 27 28 29 31 32 32 32 32 33 33 32 32 31 30 29 28 28 27
19 19 19 18 18 18 18 18 17 16 16 16 16 16 16 16 16 17 18 19 21 23 24 26 27 29 30 31 33 34 34 34 34 33 33 33 33 34 34 33 32 30 30
21 20 20 20 20 20 19 19 19 18 18 18 18 18 18 17 17 18 19 20 22 24 25 26 27 28 31 34 35 35 35 34 33 34 34 33 32 32 32 32 33 33 32
21 23 23 23 22 22 22 21 21 20 20 19 19 19 19 19 18 18 18 20 22 24 25 26 28 30 31 32 34 35 35 35 33 33 33 33 32 31 31 31 31 32 33
23 23 25 25 25 25 24 24 23 22 22 21 21 21 20 20 19 19 20 21 22 23 24 25 28 30 30 31 32 31 30 30 32 32 31 30 30 30 30 30 31 32 32
25 25 25 27 28 28 28 27 26 26 25 25 24 23 22 21 20 20 20 21 21 22 22 24 26 27 28 28 27 25 25 26 27 28 28 27 27 27 27 27 28 28 29
24 26 26 25 25 26 28 29 30 28 28 27 26 25 23 22 21 20 21 21 21 20 21 22 24 25 27 26 24 23 22 21 20 21 23 23 23 24 25 25 26 26 27
26 27 27 27 28 28 28 28 29 28 27 26 25 25 25 24 22 21 21 21 20 19 20 20 22 23 24 24 22 21 19 17 16 17 17 19 21 22 23 24 24 25 25
29 29 28 29 29 29 29 28 28 28 26 26 27 28 29 33 32 28 23 20 18 18 18 18 19 20 21 22 22 17 16 14 12 12 14 16 18 19 19 19 20 22 24
30 30 29 29 30 31 30 29 27 27 28 27 26 24 22 16 18 19 19 18 17 17 16 16 16 17 17 18 19 18 14 12 12 11 11 12 13 15 16 19 20 21 22
30 31 31 31 30 30 31 31 31 29 27 27 25 24 23 20 18 17 17 16 15 15 15 15 15 15 15 15 15 16 16 14 11 9 10 10 11 12 13 14 16 18 20
28 29 30 30 29 29 30 30 28 29 27 27 27 24 23 23 20 18 17 15 14 14 14 14 13 13 13 13 13 13 13 14 13 12 9 9 10 10 11 12 13 15 15
27 27 28 29 29 28 29 30 30 29 26 24 24 22 21 21 19 18 16 15 14 14 13 13 13 13 12 12 12 11 11 11 11 11 11 10 9 9 8 8 8 7 8
27 26 26 28 28 28 27 27 27 25 25 24 23 22 22 21 19 17 16 15 15 14 14 13 12 12 12 12 12 11 11 11 11 11 11 10 10 10 9 9 9 9 9
28 27 26 26 27 26 26 24 23 23 22 22 22 21 20 20 19 17 16 16 15 15 14 13 13 12 12 12 12 11 12 12 12 12 12 12 12 12 12 12 13 13 13
27 27 24 24 23 23 24 24 24 23 21 21 20 19 18 18 17 17 15 15 15 14 14 13 13 13 13 13 13 13 14 14 14 14 15 15 15 14 15 15 15 16 17
25 26 25 24 23 24 24 25 25 22 21 20 19 18 17 16 15 13 13 13 13 13 13 13 14 14 14 15 16 17 17 18 19 19 19 19 19 19 19 20 20 20 21
24 25 26 26 26 25 24 25 23 21 20 18 17 17 16 16 14 13 13 12 13 12 13 14 15 17 18 19 19 20 21 21 22 23 24 24 25 25 25 25 26 26 27
Wind_Direction
219 221 220 221 220 220 222 223 223 227 232 238 240 241 244 245 250 250 253 259 263 265 268 260 263 268 260 261 266 265 265 264 267 267 264 267 266 267 269 264 264 265 264
218 220 221 221 222 222 223 225 226 230 234 238 240 243 245 248 252 254 257 262 266 264 267 268 271 272 261 265 266 267 268 271 271 270 267 265 266 268 271 268 265 269 263
220 220 222 223 224 226 226 227 227 229 233 234 237 240 244 249 253 259 261 263 265 268 271 270 270 269 269 270 270 271 271 271 271 272 271 268 266 267 269 269 266 266 266
222 223 224 225 226 227 226 225 226 227 229 232 235 241 246 251 256 261 263 264 268 272 272 271 272 272 271 272 273 273 273 273 272 272 271 270 267 267 267 267 266 266 264
229 227 227 228 230 229 226 225 225 226 229 232 237 243 247 252 258 260 263 267 271 274 275 275 275 275 274 273 273 274 274 272 272 271 271 270 269 267 269 267 266 265 264
231 231 229 230 230 230 228 226 225 227 228 232 237 243 249 253 257 259 264 271 275 277 280 280 280 279 277 275 274 274 274 273 272 271 269 270 270 268 268 268 266 264 266
232 232 231 231 231 229 226 223 222 224 225 230 234 237 241 248 255 261 268 274 279 281 282 283 283 282 281 279 278 276 274 272 270 271 270 269 269 267 267 265 263 264 265
234 233 231 230 230 227 223 221 220 221 219 220 226 235 245 256 266 272 277 279 280 283 285 286 285 284 283 282 281 280 278 275 272 270 268 268 268 268 266 264 264 264 264
236 233 231 229 228 226 223 220 217 217 221 228 237 246 256 264 272 279 282 284 286 287 288 288 287 287 286 286 283 280 278 275 273 270 268 267 267 267 266 264 262 262 262
237 233 230 227 226 226 224 222 222 227 233 240 245 253 262 268 274 279 284 287 289 292 292 291 290 289 289 288 285 282 279 276 273 271 269 267 267 265 263 262 261 260 261
241 235 230 229 229 228 226 227 230 236 242 247 253 259 265 269 273 279 285 290 293 296 296 297 296 296 294 290 286 282 279 277 274 272 269 267 267 265 263 261 259 258 258
242 236 232 231 230 231 231 232 236 241 246 251 256 262 266 270 272 276 285 294 298 299 300 301 301 303 300 297 292 286 279 275 272 269 268 266 265 264 262 261 261 260 258
243 239 236 235 234 235 234 235 239 243 248 252 255 259 263 268 269 276 286 295 299 302 304 306 306 306 305 303 298 292 284 276 271 268 266 264 264 264 262 262 262 261 260
244 242 240 239 239 238 238 238 241 245 251 252 256 258 261 265 267 276 286 293 298 302 307 311 314 313 311 309 308 303 291 283 273 265 263 264 264 263 262 261 261 262 263
247 242 241 241 241 241 243 243 244 251 251 250 254 252 255 260 265 275 285 291 297 302 307 313 319 322 322 318 312 311 306 293 278 270 262 262 264 265 264 263 262 263 265
247 244 242 241 243 246 246 248 249 251 251 251 254 252 259 259 265 269 280 287 291 297 303 313 320 325 329 331 321 317 314 304 289 275 267 266 267 268 266 264 263 264 268
247 247 244 244 245 245 245 247 246 248 250 252 254 256 263 262 256 263 271 278 282 291 298 310 318 327 333 339 340 322 320 315 303 288 276 275 272 269 269 267 267 270 272
246 244 246 246 247 244 243 244 246 246 250 251 249 255 262 253 235 244 259 269 277 284 293 303 313 324 332 339 348 352 334 323 311 302 293 286 284 277 277 272 272 276 277
246 245 247 249 246 244 244 245 248 247 247 244 244 250 248 238 240 250 255 262 272 282 291 297 306 316 326 334 345 354 1 358 337 316 310 310 301 287 283 283 282 284 284
246 247 247 243 243 241 242 244 242 242 243 243 243 245 234 230 238 244 247 255 266 277 286 292 300 307 314 324 333 345 356 3 9 11 358 334 320 306 299 298 296 293 293
246 247 242 240 240 240 242 242 238 237 233 233 232 230 220 224 234 238 244 251 262 272 281 286 293 300 304 309 316 326 337 345 352 358 0 359 358 359 358 351 345 337 329
244 245 241 238 238 239 239 234 228 224 227 227 225 219 222 228 234 239 243 251 259 268 276 281 285 292 300 306 308 312 318 325 331 335 337 338 338 338 334 332 329 325 323
242 241 239 237 236 230 222 218 217 213 210 214 214 215 220 226 234 239 244 250 257 265 270 274 278 284 291 299 303 307 311 315 318 321 322 321 320 319 316 315 313 307 305
236 234 233 227 218 211 208 207 204 205 209 209 211 217 223 227 234 238 243 247 253 261 266 269 275 280 285 291 296 300 303 306 309 310 312 312 311 310 309 308 306 305 302
229 225 220 212 203 205 203 201 201 205 207 210 216 222 224 227 228 231 235 243 252 261 265 270 275 279 285 289 292 294 297 299 297 298 299 301 301 301 301 301 300 298 297
222 217 211 206 206 204 201 199 202 203 208 214 218 219 220 222 226 231 238 248 257 263 269 274 280 285 285 289 291 292 294 295 294 294 294 293 293 294 295 294 294 294 292